TimeCDT,TemperatureF,Dew PointF,Humidity,Sea Level PressureIn,VisibilityMPH,Wind Direction,Wind SpeedMPH,Gust SpeedMPH,PrecipitationIn,Events,Conditions,WindDirDegrees,DateUTC
12:13 AM,62.6,46.4,55,29.89,10.0,South,4.6,-,N/A,,Clear,170,2013-10-09 05:13:00
12:33 AM,62.6,46.4,55,29.90,10.0,SSE,4.6,-,N/A,,Clear,160,2013-10-09 05:33:00
12:52 AM,62.6,46.4,55,29.90,10.0,SSE,4.6,-,N/A,,Clear,160,2013-10-09 05:52:00
1:13 AM,62.6,46.4,55,29.90,10.0,South,5.8,-,N/A,,Clear,170,2013-10-09 06:13:00
1:33 AM,62.6,46.4,55,29.91,10.0,South,5.8,-,N/A,,Clear,170,2013-10-09 06:33:00
1:53 AM,62.6,46.4,55,29.91,10.0,SSE,4.6,-,N/A,,Clear,160,2013-10-09 06:53:00
2:12 AM,62.6,46.4,55,29.92,10.0,South,4.6,-,N/A,,Clear,170,2013-10-09 07:12:00
2:33 AM,60.8,46.4,59,29.93,10.0,South,3.5,-,N/A,,Clear,190,2013-10-09 07:33:00
2:52 AM,60.8,46.4,59,29.93,10.0,South,4.6,-,N/A,,Clear,170,2013-10-09 07:52:00
3:13 AM,60.8,46.4,59,29.93,10.0,South,5.8,-,N/A,,Clear,190,2013-10-09 08:13:00
3:33 AM,60.8,46.4,59,29.93,10.0,South,6.9,-,N/A,,Clear,170,2013-10-09 08:33:00
3:52 AM,60.8,46.4,59,29.93,10.0,SSE,4.6,-,N/A,,Clear,160,2013-10-09 08:52:00
4:13 AM,59.0,48.2,67,29.93,10.0,South,5.8,-,N/A,,Clear,170,2013-10-09 09:13:00
4:33 AM,59.0,46.4,63,29.93,10.0,South,4.6,-,N/A,,Clear,180,2013-10-09 09:33:00
4:52 AM,57.2,46.4,67,29.94,10.0,South,4.6,-,N/A,,Clear,180,2013-10-09 09:52:00
5:13 AM,57.2,48.2,72,29.94,10.0,South,3.5,-,N/A,,Clear,170,2013-10-09 10:13:00
5:33 AM,57.2,48.2,72,29.95,10.0,South,3.5,-,N/A,,Clear,170,2013-10-09 10:33:00
5:52 AM,57.2,48.2,72,29.95,10.0,South,3.5,-,N/A,,Clear,170,2013-10-09 10:52:00
6:13 AM,55.4,48.2,77,29.95,10.0,South,4.6,-,N/A,,Clear,170,2013-10-09 11:13:00
6:33 AM,55.4,48.2,77,29.96,10.0,South,3.5,-,N/A,,Clear,170,2013-10-09 11:33:00
6:53 AM,55.4,48.2,77,29.96,10.0,SSE,5.8,-,N/A,,Clear,160,2013-10-09 11:53:00
7:13 AM,55.4,48.2,77,29.96,10.0,SSE,5.8,-,N/A,,Clear,160,2013-10-09 12:13:00
7:32 AM,55.4,48.2,77,29.97,10.0,SSE,4.6,-,N/A,,Clear,160,2013-10-09 12:32:00
7:53 AM,55.4,48.2,77,29.97,10.0,SSE,4.6,-,N/A,,Clear,160,2013-10-09 12:53:00
8:13 AM,55.4,48.2,77,29.98,10.0,SSE,4.6,-,N/A,,Clear,160,2013-10-09 13:13:00
8:32 AM,57.2,50.0,77,29.98,10.0,South,3.5,-,N/A,,Clear,180,2013-10-09 13:32:00
8:53 AM,57.2,48.2,72,29.99,10.0,South,5.8,-,N/A,,Clear,170,2013-10-09 13:53:00
9:13 AM,57.2,48.2,72,29.99,10.0,South,6.9,-,N/A,,Clear,180,2013-10-09 14:13:00
9:32 AM,59.0,48.2,67,29.99,10.0,South,4.6,-,N/A,,Clear,170,2013-10-09 14:32:00
9:53 AM,62.6,50.0,63,29.99,10.0,South,5.8,-,N/A,,Clear,190,2013-10-09 14:53:00
10:13 AM,62.6,50.0,63,30.00,10.0,South,6.9,-,N/A,,Clear,190,2013-10-09 15:13:00
10:32 AM,64.4,50.0,59,30.01,10.0,South,9.2,-,N/A,,Clear,190,2013-10-09 15:32:00
11:13 AM,66.2,50.0,56,30.01,10.0,South,6.9,-,N/A,,Clear,180,2013-10-09 16:13:00
11:32 AM,68.0,50.0,52,30.01,10.0,SSW,5.8,-,N/A,,Clear,210,2013-10-09 16:32:00
11:53 AM,69.8,50.0,49,30.01,10.0,SW,5.8,-,N/A,,Clear,220,2013-10-09 16:53:00
12:13 PM,69.8,50.0,49,30.01,10.0,South,4.6,-,N/A,,Clear,170,2013-10-09 17:13:00
12:32 PM,71.6,50.0,46,30.01,10.0,SSW,3.5,-,N/A,,Clear,200,2013-10-09 17:32:00
12:53 PM,71.6,51.8,50,30.01,10.0,SSE,5.8,-,N/A,,Clear,160,2013-10-09 17:53:00
1:12 PM,71.6,50.0,46,30.00,10.0,SSE,4.6,-,N/A,,Clear,150,2013-10-09 18:12:00
1:33 PM,73.4,50.0,44,30.00,10.0,SSE,6.9,-,N/A,,Clear,160,2013-10-09 18:33:00
1:53 PM,73.4,50.0,44,29.99,10.0,SSE,4.6,-,N/A,,Clear,160,2013-10-09 18:53:00
2:12 PM,73.4,50.0,44,29.99,10.0,SSE,6.9,-,N/A,,Clear,150,2013-10-09 19:12:00
2:33 PM,75.2,51.8,44,29.98,10.0,SSE,8.1,-,N/A,,Clear,150,2013-10-09 19:33:00
2:53 PM,75.2,50.0,41,29.98,10.0,SSE,8.1,-,N/A,,Clear,150,2013-10-09 19:53:00
3:12 PM,75.2,50.0,41,29.99,10.0,SSE,6.9,-,N/A,,Clear,160,2013-10-09 20:12:00
3:33 PM,75.2,50.0,41,29.98,10.0,SSE,6.9,-,N/A,,Clear,150,2013-10-09 20:33:00
3:53 PM,75.2,50.0,41,29.98,10.0,SSE,8.1,-,N/A,,Clear,150,2013-10-09 20:53:00
4:12 PM,75.2,50.0,41,29.98,7.0,SSE,9.2,-,N/A,,Clear,150,2013-10-09 21:12:00
4:33 PM,75.2,48.2,38,29.97,10.0,SSE,5.8,-,N/A,,Clear,160,2013-10-09 21:33:00
4:52 PM,75.2,50.0,41,29.97,10.0,SE,8.1,-,N/A,,Clear,140,2013-10-09 21:52:00
5:13 PM,75.2,50.0,41,29.97,10.0,SSE,8.1,-,N/A,,Clear,150,2013-10-09 22:13:00
5:33 PM,73.4,50.0,44,29.97,10.0,SE,6.9,-,N/A,,Clear,140,2013-10-09 22:33:00
5:53 PM,73.4,50.0,44,29.97,10.0,SSE,5.8,-,N/A,,Clear,150,2013-10-09 22:53:00
6:12 PM,73.4,50.0,44,29.97,10.0,SSE,5.8,-,N/A,,Clear,150,2013-10-09 23:12:00
6:33 PM,71.6,50.0,46,29.97,10.0,SE,5.8,-,N/A,,Clear,140,2013-10-09 23:33:00
6:53 PM,68.0,48.2,49,29.97,10.0,SE,5.8,-,N/A,,Clear,140,2013-10-09 23:53:00
7:12 PM,66.2,48.2,52,29.98,10.0,SE,4.6,-,N/A,,Clear,140,2013-10-10 00:12:00
7:33 PM,64.4,48.2,56,29.98,10.0,SE,6.9,-,N/A,,Clear,140,2013-10-10 00:33:00
7:53 PM,66.2,48.2,52,29.98,10.0,SE,6.9,-,N/A,,Clear,140,2013-10-10 00:53:00
8:13 PM,66.2,46.4,49,29.98,10.0,SSE,6.9,-,N/A,,Clear,150,2013-10-10 01:13:00
8:33 PM,66.2,46.4,49,29.99,10.0,SE,6.9,-,N/A,,Clear,140,2013-10-10 01:33:00
8:53 PM,64.4,46.4,52,29.99,10.0,SE,8.1,-,N/A,,Clear,140,2013-10-10 01:53:00
9:13 PM,64.4,46.4,52,29.99,10.0,SE,6.9,-,N/A,,Clear,140,2013-10-10 02:13:00
9:33 PM,64.4,48.2,56,30.00,10.0,SSE,5.8,-,N/A,,Clear,150,2013-10-10 02:33:00
9:53 PM,62.6,48.2,59,30.00,10.0,SE,6.9,-,N/A,,Clear,140,2013-10-10 02:53:00
10:12 PM,62.6,48.2,59,30.00,10.0,SE,6.9,-,N/A,,Clear,140,2013-10-10 03:12:00
10:33 PM,62.6,48.2,59,30.00,10.0,SSE,4.6,-,N/A,,Clear,150,2013-10-10 03:33:00
10:53 PM,62.6,48.2,59,30.01,10.0,SSE,4.6,-,N/A,,Clear,160,2013-10-10 03:53:00
11:13 PM,62.6,48.2,59,30.02,10.0,SSE,4.6,-,N/A,,Clear,160,2013-10-10 04:13:00
11:33 PM,62.6,48.2,59,30.02,10.0,SSE,4.6,-,N/A,,Clear,150,2013-10-10 04:33:00
11:53 PM,62.6,48.2,59,30.02,10.0,SSE,5.8,-,N/A,,Clear,160,2013-10-10 04:53:00